Location: Innsbruck
(47.2657°N, 11.3914°E)
Time: 15:27:54
(UTC+02:00)

Envisat - Visible Passes

Search period start: 24 September 2021 00:00
Search period end: 04 October 2021 00:00
Orbit: 764 x 766 km, 98.2° (Epoch: 23 September)

Date Brightness Start Highest point End Pass type
(mag) Time Alt. Az. Time Alt. Az. Time Alt. Az.
24 Sep 6.1 04:58:38 10° ENE 05:00:38 12° E 05:02:38 10° ESE visible
25 Sep 4.4 05:58:37 10° NNE 06:03:28 42° E 06:08:16 10° S visible
26 Sep 5.6 05:22:31 10° NE 05:26:19 21° E 05:30:04 10° SE visible
27 Sep 3.4 06:23:47 10° NNE 06:28:53 71° ESE 06:33:57 10° S visible
28 Sep 4.8 05:47:15 10° NNE 05:51:53 34° E 05:56:28 10° SSE visible
29 Sep 5.9 05:11:27 10° NE 05:14:40 17° E 05:17:52 10° SE visible
30 Sep 3.8 06:12:19 10° NNE 06:17:21 57° E 06:22:20 10° S visible
01 Oct 5.2 05:35:57 10° NE 05:40:17 27° E 05:44:35 10° SSE visible
02 Oct 6.1 05:00:37 10° ENE 05:03:00 13° E 05:05:22 10° ESE visible
02 Oct 3.0 06:37:36 10° NNE 06:42:43 87° WNW 06:47:48 10° SSW visible
03 Oct 4.2 06:00:54 10° NNE 06:05:47 45° E 06:10:39 10° S visible
